User: anonymous   Login
Location: Unspecified
(0.0000°N, 0.0000°E)
Time: 21:13:52
(UTC+00:00)
Language:

COSMOS 2468 - Orbit

View from above orbital plane
View from above orbital plane
View from above satellite
View from above satellite

Ground track
Ground track

The orbit data is extracted from the following two-line orbital elements,

1 37154U 10043C   14326.48241540  .00000027  00000-0  12384-3 0  3244
2 37154 082.4634 186.8251 0013429 176.4355 183.6827 12.42891517190814
Epoch (UTC): 22 November 2014 11:34:40
Eccentricity: 0.0013429
inclination: 82.4634°
perigee height: 1484 km
apogee height: 1505 km
right ascension of ascending node: 186.8251°
argument of perigee: 176.4355°
revolutions per day: 12.42891517
mean anomaly at epoch: 183.6827°
orbit number at epoch: 19081

The dashed part of the orbit path shows where the satellite is in the earth's shadow,  

DLR